Hagerstown, MD

5:30 AM EDT on July 22, 2017 (GMT -0400)
Hagerstown Regional-Henson

Weather History for KHGR - April, 2012

Change the Weather History Date:

Sunday, April 22, 2012

  Actual Average Record
Temperature  
Mean Temperature 49 °F 55 °F  
Max Temperature 52 °F 65 °F 80 °F (2001)
Min Temperature 46 °F 45 °F 34 °F (2013)
Degree Days  
Heating Degree Days 16 11  
Month to date heating degree days 231 307  
Since 1 July heating degree days 3939 4939  
Cooling Degree Days 0 1  
Month to date cooling degree days 11 4  
Year to date cooling degree days 20 5  
Moisture  
Dew Point 43 °F    
Average Humidity 83    
Maximum Humidity 86    
Minimum Humidity 80    
Precipitation  
Precipitation 0.16 in 0.11 in 1.11 in (2006)
Month to date precipitation 1.26 2.69  
Year to date precipitation 7.64 11.30  
Sea Level Pressure  
Sea Level Pressure 29.72 in    
Wind  
Wind Speed 9 mph (North)    
Max Wind Speed 17 mph    
Max Gust Speed 22 mph    
Visibility 8 miles    
Events Rain    
T = Trace of Precipitation, MM = Missing Value Source: NWS Daily Summary

Daily Weather History Graph

Daily Weather History Graph

Search for Another Location

Airport or City:

Trip Planner

Search our weather history database for the weather conditions in past years. The results will help you decide how hot, cold, wet, or windy it might be!

Date:

Astronomy

Apr. 22, 2012 Rise Set
Actual Time 6:22 AM EDT 7:56 PM EDT
Civil Twilight 5:54 AM EDT 8:25 PM EDT
Nautical Twilight 5:20 AM EDT 8:59 PM EDT
Astronomical Twilight 4:43 AM EDT 9:36 PM EDT
Moon 6:53 AM EDT 9:31 PM EDT
Length of Visible Light 14h 30m
Length of Day
13h 33m
New Moon, 2% of the Moon is Illuminated
Apr 22
New Moon
Apr 29
First Quarter
May 5
Full
May 12
Last Quarter
May 20
New

Hourly Weather History & Observations

Time (EDT) Temp. Windchill Dew Point Humidity Pressure Visibility Wind Dir Wind Speed Gust Speed Precip Events Conditions
12:53 AM 52.0 °F - 46.9 °F 83% 29.85 in 10.0 mi NW 5.8 mph - N/A   Overcast
1:53 AM 52.0 °F - 46.9 °F 83% 29.82 in 10.0 mi North 6.9 mph - N/A   Mostly Cloudy
2:53 AM 51.1 °F - 46.0 °F 83% 29.82 in 10.0 mi NNW 8.1 mph - N/A   Overcast
3:11 AM 51.8 °F - 44.6 °F 76% 29.79 in 10.0 mi NNW 8.1 mph - N/A   Overcast
3:37 AM 51.8 °F - 46.4 °F 82% 29.79 in 10.0 mi NNW 6.9 mph - N/A   Overcast
3:53 AM 51.1 °F - 46.0 °F 83% 29.81 in 10.0 mi NNW 8.1 mph - N/A   Overcast
4:53 AM 50.0 °F - 46.0 °F 86% 29.81 in 10.0 mi NNE 6.9 mph - N/A   Overcast
5:53 AM 50.0 °F - 45.0 °F 83% 29.82 in 10.0 mi North 5.8 mph - N/A   Overcast
6:53 AM 48.9 °F - 45.0 °F 86% 29.83 in 10.0 mi North 6.9 mph - N/A   Overcast
7:20 AM 48.2 °F - 44.6 °F 87% 29.79 in 10.0 mi North 6.9 mph - N/A   Scattered Clouds
7:53 AM 48.9 °F - 44.1 °F 83% 29.82 in 10.0 mi North 6.9 mph - N/A   Mostly Cloudy
8:08 AM 48.2 °F - 44.6 °F 87% 29.79 in 10.0 mi NNE 9.2 mph - N/A   Overcast
8:18 AM 48.2 °F - 44.6 °F 87% 29.79 in 10.0 mi NNE 8.1 mph - N/A   Overcast
8:53 AM 48.0 °F - 43.0 °F 83% 29.82 in 10.0 mi North 10.4 mph - N/A   Overcast
9:19 AM 46.4 °F 41.9 °F 42.8 °F 87% 29.78 in 10.0 mi North 9.2 mph - N/A   Overcast
9:53 AM 46.9 °F - 42.1 °F 83% 29.83 in 10.0 mi NNE 8.1 mph - N/A   Overcast
10:46 AM 46.4 °F 41.1 °F 42.8 °F 87% 29.79 in 10.0 mi North 11.5 mph - 0.01 in Rain Light Rain
10:53 AM 46.9 °F - 42.1 °F 83% 29.82 in 10.0 mi North 12.7 mph - 0.01 in Rain Light Rain
11:53 AM 46.9 °F - 42.1 °F 83% 29.82 in 6.0 mi NNE 8.1 mph - 0.02 in Rain Light Rain
12:10 PM 46.4 °F 41.9 °F 42.8 °F 87% 29.78 in 6.0 mi North 9.2 mph - 0.02 in Rain Light Rain
12:22 PM 46.4 °F 41.9 °F 42.8 °F 87% 29.77 in 6.0 mi North 9.2 mph - 0.02 in Rain Light Rain
12:53 PM 46.9 °F - 42.1 °F 83% 29.78 in 9.0 mi North 13.8 mph - 0.03 in Rain Light Rain
1:53 PM 46.9 °F - 42.1 °F 83% 29.76 in 10.0 mi North 12.7 mph - 0.01 in Rain Light Rain
2:20 PM 46.4 °F 40.7 °F 42.8 °F 87% 29.71 in 10.0 mi North 12.7 mph - 0.01 in Rain Light Rain
2:41 PM 46.4 °F 40.1 °F 42.8 °F 87% 29.70 in 9.0 mi North 15.0 mph - 0.01 in Rain Light Rain
2:49 PM 46.4 °F 41.1 °F 42.8 °F 87% 29.70 in 8.0 mi North 11.5 mph - 0.02 in Rain Light Rain
2:53 PM 46.0 °F 39.6 °F 42.1 °F 86% 29.73 in 8.0 mi North 15.0 mph - 0.02 in Rain Light Rain
3:03 PM 46.4 °F 40.4 °F 42.8 °F 87% 29.69 in 8.0 mi North 13.8 mph 20.7 mph 0.01 in Rain Light Rain
3:15 PM 46.4 °F 40.7 °F 42.8 °F 87% 29.68 in 10.0 mi North 12.7 mph - 0.01 in Rain Light Rain
3:43 PM 46.4 °F 41.5 °F 42.8 °F 87% 29.66 in 10.0 mi North 10.4 mph - 0.02 in Rain Light Rain
3:53 PM 46.9 °F - 43.0 °F 86% 29.69 in 10.0 mi North 12.7 mph - 0.03 in Rain Light Rain
4:39 PM 46.4 °F 41.5 °F 42.8 °F 87% 29.64 in 9.0 mi North 10.4 mph - 0.02 in Rain Light Rain
4:53 PM 46.9 °F - 43.0 °F 86% 29.67 in 7.0 mi North 9.2 mph - 0.03 in Rain Light Rain
5:23 PM 46.4 °F 41.1 °F 42.8 °F 87% 29.62 in 6.0 mi North 11.5 mph - 0.04 in Rain Light Rain
5:53 PM 46.0 °F 40.6 °F 43.0 °F 89% 29.66 in 6.0 mi North 11.5 mph - 0.08 in Rain Light Rain
6:08 PM 46.4 °F 41.5 °F 42.8 °F 87% 29.63 in 6.0 mi North 10.4 mph - 0.02 in Rain Light Rain
6:18 PM 46.4 °F 41.5 °F 42.8 °F 87% 29.62 in 5.0 mi North 10.4 mph - 0.03 in Rain Light Rain
6:53 PM 45.0 °F 39.3 °F 43.0 °F 93% 29.65 in 5.0 mi North 11.5 mph - 0.07 in Rain Light Rain
7:53 PM 45.0 °F 38.9 °F 43.0 °F 93% 29.62 in 6.0 mi North 12.7 mph - 0.07 in Rain Light Rain
8:05 PM 44.6 °F 38.4 °F 42.8 °F 93% 29.58 in 7.0 mi North 12.7 mph - 0.01 in Rain Light Rain
8:25 PM 44.6 °F 37.4 °F 42.8 °F 93% 29.57 in 7.0 mi North 16.1 mph - 0.04 in Rain Light Rain
8:33 PM 44.6 °F 38.1 °F 42.8 °F 93% 29.56 in 7.0 mi North 13.8 mph - 0.05 in Rain Light Rain
8:53 PM 44.1 °F 38.1 °F 42.1 °F 93% 29.60 in 7.0 mi North 11.5 mph - 0.08 in Rain Light Rain
9:53 PM 43.0 °F 36.8 °F 41.0 °F 93% 29.59 in 6.0 mi NNW 11.5 mph - 0.09 in Rain Light Rain
10:48 PM 42.8 °F 36.6 °F 39.2 °F 87% 29.52 in 8.0 mi NW 11.5 mph - 0.08 in Rain Light Rain
10:53 PM 42.1 °F 36.1 °F 39.9 °F 92% 29.56 in 8.0 mi NW 10.4 mph - 0.09 in Rain Light Rain
11:53 PM 39.9 °F 32.1 °F 37.0 °F 89% 29.51 in 10.0 mi NW 13.8 mph - 0.05 in Rain Light Rain